Weather History for Tampa Macdill AFB, FL

Change the Weather History Date:

Thursday, December 20, 2012

  Actual Average Record
Temperature  
Mean Temperature 66 °F -  
Max Temperature 81 °F 68 °F 83 °F (2013)
Min Temperature 50 °F 51 °F 33 °F (1996)
Growing Degree Days 16 (Base 50)    
Moisture  
Dew Point 68 °F    
Average Humidity 96    
Maximum Humidity 100    
Minimum Humidity 70    
Precipitation  
Precipitation 0.72 in - - ()
Sea Level Pressure  
Sea Level Pressure 30.00 in    
Wind  
Wind Speed 11 mph (West)    
Max Wind Speed 24 mph    
Max Gust Speed 32 mph    
Visibility 7 miles    
Events Rain , Thunderstorm    
Averages and records for this station are not official NWS values.
T = Trace of Precipitation, MM = Missing Value Source: NWS Daily Summary

Daily Weather History Graph

Daily Weather History Graph

Search for Another Location

Airport:

Trip Planner

Search our weather history database for the weather conditions in past years. The results will help you decide how hot, cold, wet, or windy it might be!

Date:

Astronomy

Dec. 20, 2012 Rise Set
Actual Time 7:16 AM EST 5:39 PM EST
Civil Twilight 6:50 AM EST 6:05 PM EST
Nautical Twilight 6:21 AM EST 6:34 PM EST
Astronomical Twilight 5:52 AM EST 7:03 PM EST
Moon 12:32 PM EST (12/20) 12:29 AM EST (12/20)
Length of Visible Light 11h 14m
Length of Day
10h 22m
First Quarter, 55% of the Moon is Illuminated
Dec 20
First Quarter
Dec 28
Full
Jan 4
Last Quarter
Jan 11
New
Jan 18
First Quarter

Hourly Weather History & Observations

Time (EST) Temp. Heat Index Dew Point Humidity Pressure Visibility Wind Dir Wind Speed Gust Speed Precip Events Conditions
12:55 AM 50.5 °F - 48.7 °F 94% 30.07 in 10.0 mi SE 4.6 mph - N/A   Clear
1:55 AM 52.9 °F - 51.1 °F 94% 30.06 in 10.0 mi ESE 3.5 mph - N/A   Clear
2:55 AM 53.4 °F - 52.2 °F 95% 30.06 in 10.0 mi ESE 3.5 mph - N/A   Clear
3:55 AM 56.7 °F - 56.3 °F 99% 30.06 in 10.0 mi SSE 5.8 mph - N/A   Clear
4:55 AM 63.1 °F - 62.8 °F 99% 30.05 in 10.0 mi SSE 8.1 mph - N/A   Clear
5:55 AM 63.1 °F - 63.1 °F 100% 30.05 in 10.0 mi SSE 8.1 mph - N/A   Clear
6:55 AM 63.5 °F - 63.5 °F 100% 30.06 in 10.0 mi SSE 8.1 mph - N/A   Clear
7:55 AM 64.6 °F - 64.6 °F 100% 30.08 in 10.0 mi South 8.1 mph - N/A   Clear
8:55 AM 66.7 °F - 66.2 °F 98% 30.09 in 10.0 mi South 8.1 mph - N/A   Clear
9:55 AM 70.5 °F - 66.7 °F 88% 30.08 in 10.0 mi South 11.5 mph - N/A   Clear
10:55 AM 75.0 °F - 68.0 °F 79% 30.06 in 10.0 mi South 9.2 mph - N/A   Clear
11:55 AM 79.2 °F - 68.5 °F 70% 30.04 in 10.0 mi WSW 12.7 mph - N/A   Clear
12:55 PM 81.0 °F 84.6 °F 70.5 °F 70% 30.00 in 10.0 mi WSW 11.5 mph - N/A   Clear
1:55 PM 79.9 °F - 69.4 °F 70% 29.98 in 10.0 mi West 18.4 mph - N/A   Clear
2:55 PM 78.8 °F - 70.2 °F 75% 29.96 in 10.0 mi West 19.6 mph - N/A   Clear
3:55 PM 78.1 °F - 70.2 °F 77% 29.97 in 10.0 mi West 17.3 mph - N/A   Clear
4:55 PM 75.0 °F - 70.0 °F 84% 29.98 in 10.0 mi West 15.0 mph - N/A   Partly Cloudy
5:55 PM 72.0 °F - 69.6 °F 92% 29.99 in 10.0 mi West 12.7 mph - N/A   Partly Cloudy
6:55 PM 72.0 °F - 70.2 °F 94% 29.98 in 10.0 mi West 12.7 mph - N/A   Mostly Cloudy
7:55 PM 71.8 °F - 70.5 °F 96% 29.97 in 10.0 mi West 13.8 mph - N/A   Scattered Clouds
8:55 PM 71.8 °F - 71.4 °F 99% 29.97 in 10.0 mi West 15.0 mph - N/A   Scattered Clouds
9:37 PM 71.6 °F - 71.6 °F 100% 29.97 in 10.0 mi West 16.1 mph - N/A Rain Light Rain
9:52 PM 71.6 °F - 71.6 °F 100% 29.98 in 2.0 mi West 24.2 mph 32.2 mph N/A Rain Heavy Rain
9:54 PM 71.6 °F - 71.6 °F 100% 29.98 in 1.8 mi West 16.1 mph 32.2 mph N/A Rain Rain
9:55 PM 70.9 °F - 70.9 °F 100% 29.97 in 1.8 mi West 17.3 mph 32.2 mph 0.18 in Rain Rain
9:56 PM 71.6 °F - 71.6 °F 100% 29.97 in 1.8 mi West 16.1 mph 32.2 mph N/A Rain Light Rain
9:57 PM 71.6 °F - 71.6 °F 100% 29.97 in 1.8 mi West 16.1 mph 32.2 mph N/A Rain Light Rain
10:00 PM 71.6 °F - 71.6 °F 100% 29.97 in 2.0 mi West 15.0 mph 32.2 mph N/A Rain Light Rain
10:01 PM 71.6 °F - 71.6 °F 100% 29.97 in 3.0 mi West 12.7 mph 32.2 mph N/A   Light Drizzle
10:03 PM 71.6 °F - 71.6 °F 100% 29.97 in 7.0 mi West 13.8 mph - N/A   Scattered Clouds
10:08 PM 71.6 °F - 71.6 °F 100% 29.97 in 10.0 mi West 17.3 mph 21.9 mph N/A Rain Light Rain
10:25 PM 71.6 °F - 71.6 °F 100% 29.96 in 10.0 mi West 13.8 mph - N/A Rain , Thunderstorm Light Thunderstorms and Rain
10:37 PM 71.6 °F - 71.6 °F 100% 29.98 in 2.5 mi WNW 16.1 mph 23.0 mph N/A Rain , Thunderstorm Heavy Thunderstorms and Rain
10:39 PM 71.6 °F - 71.6 °F 100% 29.99 in 1.8 mi WNW 12.7 mph 23.0 mph N/A Rain , Thunderstorm Heavy Thunderstorms and Rain
10:42 PM 71.6 °F - 71.6 °F 100% 29.98 in 1.2 mi WNW 16.1 mph 23.0 mph N/A Rain , Thunderstorm Heavy Thunderstorms and Rain
10:44 PM 71.6 °F - 71.6 °F 100% 29.98 in 1.2 mi WNW 16.1 mph 24.2 mph N/A Rain , Thunderstorm Heavy Thunderstorms and Rain
10:47 PM 69.8 °F - 69.8 °F 100% 29.98 in 1.5 mi NW 20.7 mph 29.9 mph N/A Rain , Thunderstorm Heavy Thunderstorms and Rain
10:48 PM 69.8 °F - 69.8 °F 100% 29.98 in 1.8 mi NW 18.4 mph 29.9 mph N/A Rain Rain
10:49 PM 69.8 °F - 69.8 °F 100% 29.98 in 2.0 mi NW 16.1 mph 29.9 mph N/A Rain Rain
10:51 PM 69.8 °F - 69.8 °F 100% 29.98 in 3.0 mi NW 16.1 mph 29.9 mph N/A Rain , Thunderstorm Rain
10:52 PM 69.8 °F - 69.8 °F 100% 29.98 in 4.0 mi NW 13.8 mph 29.9 mph N/A Rain , Thunderstorm Rain
10:55 PM 69.8 °F - 69.8 °F 100% 29.99 in 7.0 mi NW 13.8 mph 29.9 mph 0.46 in Rain , Thunderstorm Light Rain
10:57 PM 69.8 °F - 69.8 °F 100% 29.99 in 9.0 mi NW 13.8 mph 23.0 mph N/A Rain , Thunderstorm Light Rain
11:09 PM 69.8 °F - 69.8 °F 100% 29.99 in 8.0 mi NW 12.7 mph 21.9 mph N/A Rain Rain
11:15 PM 68.0 °F - 68.0 °F 100% 29.99 in 5.0 mi NW 10.4 mph 20.7 mph N/A Rain Rain
11:17 PM 68.0 °F - 68.0 °F 100% 29.99 in 6.0 mi WNW 12.7 mph 20.7 mph N/A Rain Light Rain
11:18 PM 68.0 °F - 68.0 °F 100% 29.99 in 6.0 mi NW 11.5 mph - N/A Rain Light Rain
11:23 PM 68.0 °F - 68.0 °F 100% 29.99 in 8.0 mi NW 9.2 mph - N/A Rain Light Rain
11:24 PM 68.0 °F - 68.0 °F 100% 29.99 in 8.0 mi NW 9.2 mph - N/A Rain Light Rain
11:26 PM 68.0 °F - 68.0 °F 100% 29.99 in 10.0 mi WNW 11.5 mph - N/A Thunderstorm Scattered Clouds
11:40 PM 68.0 °F - 68.0 °F 100% 29.98 in 10.0 mi NW 6.9 mph - N/A Rain , Thunderstorm Light Rain
11:55 PM 68.7 °F - 68.7 °F 100% 29.99 in 10.0 mi NW 8.1 mph - 0.08 in Rain Light Rain